Regional Weather Roundup
Issued by NWS

Home | Current Version | Previous Version | Text Only | Print | Product List | Glossary On
Versions: 1 2 3 4 5 6 7 8 9 10 11 12 13 14 15 16 17 18 19 20 21 22 23 24 25 26 27 28 29 30 31 32 33 34 35 36 37 38 39 40 41 42 43 44 45 46 47 48 49 50
000
ASUS45 KABQ 210901
RWRNM
NEW MEXICO REGIONAL WEATHER ROUNDUP
NATIONAL WEATHER SERVICE ALBUQUERQUE NM
300 AM MDT THU SEP 21 2017

NOTE: "FAIR" MEANS FEW OR NO CLOUDS BELOW 12,000 FEET AGL WITH NO
       SIGNIFICANT WEATHER OR OBSTRUCTIONS TO VISION.

      THIS PRODUCT IS RELEASED AS TWO VERSIONS.  ONE VERSION NEAR
      THE TOP OF THE HOUR CONTAINING PRELIMINARY DATA FROM ALBUQUERQUE
      AND OTHER STATIONS.  A FINAL VERSION WITH ADDITIONAL DATA IS
      ISSUED ABOUT 10 MINUTES AFTER THE HOUR.

NMZ501-503-504-510>518-211000-
NORTHWEST PLATEAU/NORTHCENTRAL MOUNTAINS

CITY           SKY/WX    TMP DP  RH WIND       PRES   REMARKS
FARMINGTON     FAIR      62  34  35 S9        29.99S
LOS ALAMOS     FAIR      62  28  27 S7        30.13S
SANTA FE       FAIR      53  29  39 CALM      30.08S
TAOS           FAIR      42  21  43 SE9       30.14F
ANGEL FIRE     FAIR      29  24  84 CALM      30.20S

$$
NMZ402-403-502-505>509-211000-
WESTCENTRAL MOUNTAINS/SOUTHWEST MOUNTAINS

CITY           SKY/WX    TMP DP  RH WIND       PRES   REMARKS
GALLUP         FAIR      53  30  41 CALM      30.08F
GRANTS         FAIR      51  33  49 S5        30.12S
SILVER CITY    FAIR      59  43  55 NW9       30.07F

$$
NMZ407-409-411-412-211000-
SOUTHERN DESERTS

CITY           SKY/WX    TMP DP  RH WIND       PRES   REMARKS
DEMING         FAIR      60  45  57 W6        30.01S
LAS CRUCES     FAIR      68  40  35 W10       30.00F
ALAMOGORDO     FAIR      68  39  34 S7        29.98S
T OR C         FAIR      68  38  33 W5        30.00F

$$
NMZ519>523-211000-
CENTRAL VALLEYS/CENTRAL HIGHLANDS

CITY           SKY/WX    TMP DP  RH WIND       PRES   REMARKS
ALBUQUERQUE    FAIR      65  32  29 E5        30.03F
CLINES CORNERS FAIR      55  33  43 W16       30.13S
BELEN          FAIR      60  31  33 CALM      30.02F
SOCORRO        FAIR      56  30  37 CALM      30.00S

$$
NMZ524>526-539-540-211000-
SOUTHCENTRAL MOUNTAINS

CITY           SKY/WX    TMP DP  RH WIND       PRES   REMARKS
RUIDOSO        FAIR      63  39  42 W7        30.15F

$$
NMZ527>531-211000-
NORTHEAST HIGHLANDS/NORTHEAST PLAINS

CITY           SKY/WX    TMP DP  RH WIND       PRES   REMARKS
LAS VEGAS      FAIR      54  33  45 S12       30.08F
RATON          FAIR      44  35  70 N5        30.04F
CLAYTON        FAIR      56  40  55 W9        29.94F

$$
NMZ532>537-211000-
EASTCENTRAL PLAINS

CITY           SKY/WX    TMP DP  RH WIND       PRES   REMARKS
SANTA ROSA     FAIR      58  36  43 N3        29.95F
TUCUMCARI      FAIR      61  43  51 W7        29.90F
CANNON AFB     NOT AVBL
CLOVIS AIRPORT FAIR      55  47  74 S6        29.95F

$$
NMZ028-029-538-211000-
SOUTHEAST PLAINS

CITY           SKY/WX    TMP DP  RH WIND       PRES   REMARKS
ROSWELL        FAIR      66  40  38 W5        29.92S
ARTESIA        FAIR      68  41  37 SW12      29.92F
CARLSBAD       FAIR      70  45  40 S12       29.90F
HOBBS          FAIR      64  54  68 SW8       29.95S


$$



USA.gov is the U.S. government's official web portal to all federal, state and local government web resources and services.